DW4236 Weather Reports


time (UTC)temp
C
wind
direction
speed
KPH
gust
KPH
rain 1hr
cm
rain 24hr
cm
rain mn
cm
humidity
%
barometer
mb
20260901022105 21 256 0.0 0.0 0.00 0.00 0.00 93 1019.2
20260901021604 21 256 0.0 0.0 0.00 0.00 0.00 93 1019.2
20260901021104 21 256 0.0 0.0 0.00 0.00 0.00 93 1019.2
20260901020605 21 256 0.0 0.0 0.00 0.00 0.00 93 1019.2
20260901020105 21 256 0.0 0.0 0.00 0.00 0.00 93 1019.2
20260901015604 21 256 0.0 0.0 0.00 0.00 0.00 93 1019.1
20260901015104 21 256 0.0 0.0 0.00 0.00 0.00 93 1019.2
20260901014604 21 256 0.0 0.0 0.00 0.03 0.00 92 1019.1
20260901014105 21 256 0.0 0.0 0.00 0.03 0.00 92 1019.2
20260901013604 21 256 0.0 0.0 0.00 0.03 0.00 92 1019.1
20260901013104 21 256 0.0 0.0 0.00 0.05 0.00 92 1019.1
20260901012605 21 256 0.0 0.0 0.00 0.05 0.00 92 1019.2
20260901012104 21 256 0.0 0.0 0.00 0.05 0.00 92 1019.2
20260901011605 21 256 0.0 0.0 0.00 0.05 0.00 92 1019.3
20260901011104 21 256 0.0 0.0 0.00 0.05 0.00 92 1019.3
20260901010604 21 256 0.0 0.0 0.00 0.05 0.00 92 1019.3
20260901010105 21 256 0.0 0.0 0.00 0.05 0.00 92 1019.2
20260901005604 21 256 0.0 0.0 0.00 0.05 0.00 92 1019.3
20260901005104 21 256 0.0 0.0 0.00 0.05 0.00 91 1019.2
20260901004604 21 256 0.0 0.0 0.00 0.05 0.00 91 1019.3
20260901003605 21 256 0.0 0.0 0.00 0.05 0.00 91 1019.4
20260901003106 21 256 0.0 3.2 0.00 0.05 0.00 91 1019.4
20260901002604 21 256 0.0 0.0 0.00 0.05 0.00 90 1019.3
20260901001604 21 256 0.0 4.8 0.00 0.08 0.00 90 1019.3
20260901000605 21 256 1.6 4.8 0.00 0.08 0.00 89 1019.2
20260831235604 22 256 0.0 0.0 0.00 0.08 0.00 89 1019.3
20260831234604 22 256 0.0 0.0 0.00 0.08 0.00 89 1019.2
20260831234104 22 256 0.0 0.0 0.00 0.08 0.00 89 1019.2
20260831233104 22 256 0.0 0.0 0.00 0.08 0.00 88 1019.1
20260831232104 22 256 0.0 0.0 0.00 0.08 0.00 88 1019.2
20260831231104 22 256 0.0 0.0 0.00 0.08 0.00 87 1019.3
20260831230604 22 256 0.0 0.0 0.00 0.08 0.00 88 1019.4
20260831230104 22 256 0.0 0.0 0.00 0.08 0.00 88 1019.5
20260831225604 22 256 0.0 0.0 0.00 0.08 0.00 87 1019.5
20260831225105 22 256 0.0 0.0 0.00 0.08 0.00 87 1019.6
20260831224628 22 256 0.0 0.0 0.00 0.08 0.00 87 1019.5
20260831223604 22 256 0.0 0.0 0.00 0.08 0.00 87 1019.6
20260831223104 22 256 3.2 4.8 0.00 0.08 0.00 86 1019.6
20260831221604 22 256 1.6 4.8 0.00 0.08 0.00 87 1019.6
20260831221105 22 256 0.0 0.0 0.00 0.08 0.00 87 1019.5
20260831220604 22 256 0.0 0.0 0.00 0.08 0.00 87 1019.5
20260831215605 22 256 3.2 4.8 0.00 0.08 0.00 87 1019.7
20260831215104 22 256 1.6 4.8 0.00 0.08 0.00 87 1019.8
20260831214104 22 256 0.0 3.2 0.00 0.08 0.00 86 1019.7
20260831213604 22 256 3.2 4.8 0.00 0.08 0.00 86 1019.6
20260831213104 22 256 1.6 4.8 0.00 0.08 0.00 86 1019.7
20260831212604 22 255 3.2 9.7 0.00 0.08 0.00 86 1019.7
20260831211105 23 239 1.6 9.7 0.00 0.08 0.00 83 1019.7
20260831210105 23 225 0.0 0.0 0.00 0.08 0.00 81 1019.7
20260831205604 23 225 0.0 1.6 0.00 0.08 0.00 80 1019.6
20260831205104 23 225 0.0 0.0 0.00 0.08 0.00 79 1019.6
20260831204604 23 225 0.0 1.6 0.00 0.08 0.00 80 1019.6
20260831203604 23 225 0.0 3.2 0.00 0.08 0.00 79 1019.6
20260831203104 24 160 0.0 0.0 0.00 0.08 0.00 80 1019.7
20260831202604 24 160 0.0 4.8 0.00 0.08 0.00 79 1019.5
20260831202104 24 160 3.2 4.8 0.00 0.08 0.00 78 1019.5
20260831201604 24 252 0.0 0.0 0.00 0.08 0.00 78 1019.4
20260831201104 24 252 0.0 0.0 0.00 0.08 0.00 79 1019.4
20260831200604 24 252 0.0 0.0 0.00 0.08 0.00 78 1019.4
20260831195604 24 252 0.0 0.0 0.00 0.08 0.00 78 1019.6
20260831195105 24 252 1.6 3.2 0.00 0.08 0.00 79 1019.8
20260831193605 24 252 0.0 0.0 0.00 0.08 0.00 76 1020.1
20260831193103 24 252 0.0 0.0 0.00 0.08 0.00 76 1020.0
20260831192604 24 252 0.0 0.0 0.00 0.08 0.00 78 1020.1
20260831192104 23 252 0.0 3.2 0.00 0.08 0.00 78 1020.2
20260831191604 24 252 0.0 3.2 0.00 0.08 0.00 77 1020.3
20260831191104 24 252 0.0 3.2 0.00 0.08 0.00 77 1020.4
20260831190104 24 252 1.6 4.8 0.00 0.08 0.00 76 1020.4
20260831185604 24 252 0.0 3.2 0.00 0.08 0.00 75 1020.5
20260831185104 24 252 0.0 3.2 0.00 0.08 0.00 76 1020.6
20260831184605 24 252 1.6 4.8 0.00 0.08 0.00 76 1020.6
20260831184105 25 252 1.6 3.2 0.00 0.08 0.00 76 1020.6
20260831183104 25 250 0.0 4.8 0.00 0.08 0.00 76 1020.7
20260831182604 25 250 0.0 1.6 0.00 0.08 0.00 75 1020.7
20260831182105 25 250 0.0 1.6 0.00 0.08 0.00 74 1020.7
20260831181604 25 250 0.0 0.0 0.00 0.08 0.00 74 1020.8
20260831181104 25 250 0.0 3.2 0.00 0.08 0.00 73 1020.9
20260831180605 25 177 0.0 1.6 0.00 0.08 0.00 75 1020.8
20260831180105 24 177 0.0 1.6 0.00 0.08 0.00 75 1020.8
20260831175605 25 177 1.6 4.8 0.00 0.08 0.00 77 1021.0
20260831174604 25 151 0.0 3.2 0.00 0.08 0.00 76 1021.0
20260831174104 24 151 0.0 3.2 0.00 0.08 0.00 77 1021.1
20260831173605 24 151 0.0 3.2 0.00 0.08 0.00 76 1021.2
20260831172604 24 151 0.0 4.8 0.00 0.08 0.00 76 1021.2
20260831172105 24 151 0.0 3.2 0.00 0.08 0.00 77 1021.3
20260831171604 24 151 0.0 0.0 0.00 0.08 0.00 76 1021.3
20260831171105 24 151 0.0 0.0 0.00 0.08 0.00 77 1021.3
20260831170104 24 151 0.0 0.0 0.00 0.08 0.00 75 1021.2
20260831165605 24 151 0.0 3.2 0.00 0.08 0.00 76 1021.2
20260831165104 24 151 0.0 3.2 0.00 0.08 0.00 77 1021.2
20260831164605 24 151 1.6 4.8 0.00 0.08 0.00 77 1021.2
20260831164105 24 151 0.0 0.0 0.00 0.08 0.00 76 1021.2
20260831163605 24 151 1.6 4.8 0.00 0.08 0.00 76 1021.1
20260831163105 24 151 1.6 3.2 0.00 0.08 0.00 76 1021.2
20260831162604 24 151 3.2 8.0 0.00 0.08 0.00 76 1021.2
20260831162105 24 176 3.2 4.8 0.00 0.08 0.00 76 1021.3
20260831161605 24 182 3.2 4.8 0.00 0.08 0.00 77 1021.3
20260831161104 24 182 1.6 12.9 0.00 0.08 0.00 75 1021.4
20260831160604 25 207 1.6 4.8 0.00 0.08 0.00 74 1021.5
20260831155604 24 133 3.2 12.9 0.00 0.08 0.00 75 1021.5
20260831154605 25 357 0.0 3.2 0.00 0.08 0.00 76 1021.6
20260831154105 25 357 0.0 4.8 0.00 0.08 0.00 76 1021.6
20260831153604 24 316 1.6 4.8 0.00 0.08 0.00 76 1021.7
20260831153104 24 329 1.6 4.8 0.00 0.08 0.00 77 1021.7
20260831152604 24 64 3.2 8.0 0.00 0.08 0.00 77 1021.8
20260831151604 23 66 3.2 9.7 0.00 0.08 0.00 77 1021.7
20260831151104 23 110 1.6 4.8 0.00 0.08 0.00 78 1021.7
20260831150605 23 92 4.8 9.7 0.00 0.08 0.00 79 1021.7
20260831150104 23 131 3.2 9.7 0.00 0.08 0.00 80 1021.7
20260831145605 23 114 4.8 11.3 0.00 0.08 0.00 81 1021.7
20260831145104 22 35 3.2 8.0 0.00 0.08 0.00 81 1021.8
20260831144604 22 55 3.2 12.9 0.00 0.08 0.00 81 1021.8
20260831144105 22 89 3.2 4.8 0.00 0.08 0.00 81 1021.8
20260831143604 22 54 1.6 8.0 0.00 0.08 0.00 82 1021.9
20260831143104 22 11 4.8 9.7 0.00 0.08 0.00 81 1021.9
20260831142604 22 59 1.6 8.0 0.00 0.08 0.00 82 1021.9
20260831142105 22 106 1.6 4.8 0.00 0.08 0.00 82 1022.0
20260831141603 22 34 3.2 4.8 0.00 0.08 0.00 82 1022.0
20260831141104 22 100 4.8 11.3 0.00 0.08 0.00 83 1022.2
20260831140604 22 32 4.8 12.9 0.00 0.08 0.00 82 1022.1
20260831140104 22 81 3.2 4.8 0.00 0.08 0.00 84 1021.8
20260831135604 22 13 4.8 11.3 0.00 0.08 0.00 84 1021.7
20260831135104 22 61 3.2 8.0 0.00 0.08 0.00 85 1021.7
20260831134105 21 61 3.2 12.9 0.00 0.08 0.00 86 1021.8
20260831133104 21 97 3.2 9.7 0.00 0.08 0.00 88 1021.8
20260831132604 21 67 3.2 8.0 0.00 0.08 0.00 88 1021.8
20260831132105 21 25 3.2 9.7 0.00 0.08 0.00 89 1021.8
20260831131604 21 113 1.6 9.7 0.00 0.08 0.00 90 1021.7
20260831131104 20 113 1.6 9.7 0.00 0.08 0.00 90 1021.7
20260831130603 20 109 3.2 9.7 0.00 0.08 0.00 92 1021.9
20260831130104 20 125 4.8 12.9 0.00 0.08 0.00 92 1021.9
20260831125605 20 106 3.2 8.0 0.00 0.08 0.00 94 1021.9
20260831125104 20 17 1.6 8.0 0.00 0.08 0.00 95 1021.9
20260831124604 20 20 0.0 1.6 0.00 0.08 0.00 95 1021.8
20260831124104 20 20 0.0 1.6 0.00 0.08 0.00 95 1021.8
20260831123603 20 20 0.0 4.8 0.00 0.08 0.00 95 1021.6
20260831123104 20 255 0.0 1.6 0.00 0.08 0.00 95 1021.5
20260831122604 20 244 1.6 4.8 0.00 0.08 0.00 96 1021.6
20260831121104 19 258 0.0 0.0 0.00 0.08 0.00 96 1021.9
20260831120604 19 258 0.0 0.0 0.00 0.08 0.00 96 1021.9
20260831120104 19 258 0.0 0.0 0.00 0.08 0.00 96 1021.8
20260831115604 18 258 0.0 0.0 0.00 0.08 0.00 96 1021.7
20260831115105 18 258 0.0 0.0 0.00 0.08 0.00 96 1021.6
20260831114604 18 258 0.0 0.0 0.00 0.08 0.00 96 1021.8
20260831114103 18 258 0.0 0.0 0.00 0.08 0.00 96 1021.8
20260831113605 18 258 0.0 0.0 0.00 0.08 0.00 96 1021.7
20260831113103 18 258 0.0 0.0 0.00 0.08 0.00 96 1021.7
20260831112604 18 258 0.0 0.0 0.00 0.08 0.00 96 1021.5
20260831112104 17 258 0.0 0.0 0.00 0.08 0.00 96 1021.3
20260831111604 17 258 0.0 0.0 0.00 0.08 0.00 96 1021.3
20260831111105 17 258 0.0 0.0 0.00 0.08 0.00 96 1021.3
20260831110605 17 258 0.0 0.0 0.00 0.08 0.00 96 1021.4
20260831110105 17 258 0.0 0.0 0.00 0.08 0.00 96 1021.5
20260831105604 17 258 0.0 0.0 0.00 0.08 0.00 96 1021.3
20260831105104 17 258 0.0 0.0 0.00 0.08 0.00 95 1021.2
20260831104605 17 258 0.0 0.0 0.00 0.08 0.00 95 1021.1
20260831104104 17 258 0.0 0.0 0.00 0.08 0.00 95 1021.0
20260831103603 17 258 0.0 0.0 0.00 0.08 0.00 95 1021.0
20260831103104 17 258 0.0 0.0 0.00 0.08 0.00 95 1021.1
20260831102105 17 258 0.0 0.0 0.00 0.08 0.00 95 1021.0
20260831101103 17 258 0.0 0.0 0.00 0.08 0.00 95 1020.8
20260831100604 17 258 0.0 0.0 0.00 0.08 0.00 95 1020.8
20260831100104 17 258 0.0 0.0 0.00 0.08 0.00 95 1020.8
20260831095603 17 258 0.0 0.0 0.00 0.08 0.00 95 1020.8
20260831095105 17 258 0.0 0.0 0.00 0.08 0.00 95 1020.8
20260831094604 17 258 0.0 0.0 0.00 0.08 0.00 95 1020.7
20260831094104 17 258 0.0 0.0 0.00 0.08 0.00 95 1020.7
20260831093604 17 258 0.0 0.0 0.00 0.08 0.00 95 1020.6
20260831093104 17 258 0.0 0.0 0.00 0.08 0.00 95 1020.6
20260831092605 17 258 0.0 0.0 0.00 0.08 0.00 95 1020.7
20260831092105 17 258 0.0 0.0 0.00 0.08 0.00 95 1020.7
20260831091605 17 258 0.0 0.0 0.00 0.08 0.00 95 1020.7
20260831090604 17 258 0.0 0.0 0.00 0.08 0.00 95 1020.8
20260831090104 17 258 0.0 0.0 0.00 0.08 0.00 95 1020.8
20260831085104 17 258 0.0 0.0 0.00 0.08 0.00 95 1020.9
20260831084604 17 258 0.0 0.0 0.00 0.08 0.00 95 1020.8
20260831084104 17 258 0.0 0.0 0.00 0.08 0.00 94 1020.8
20260831083603 17 258 0.0 0.0 0.00 0.08 0.00 95 1020.7
20260831082604 17 258 0.0 0.0 0.00 0.08 0.00 94 1020.6
20260831082105 17 258 0.0 0.0 0.00 0.08 0.00 94 1020.7
20260831081604 17 258 0.0 0.0 0.00 0.08 0.00 94 1020.6
20260831081105 17 258 0.0 0.0 0.00 0.08 0.00 94 1020.7
20260831080605 17 258 0.0 0.0 0.00 0.08 0.00 94 1020.8
20260831080104 17 258 0.0 0.0 0.00 0.08 0.00 94 1020.7
20260831075604 17 258 0.0 0.0 0.00 0.08 0.00 94 1020.7
20260831074604 18 258 0.0 0.0 0.00 0.08 0.00 94 1020.7
20260831074104 18 258 0.0 0.0 0.00 0.08 0.00 94 1020.7
20260831073604 18 258 0.0 0.0 0.00 0.08 0.00 94 1020.5
20260831073104 18 258 0.0 0.0 0.00 0.08 0.00 94 1020.5
20260831072605 18 258 0.0 0.0 0.00 0.08 0.00 94 1020.5
20260831072104 18 258 0.0 0.0 0.00 0.08 0.00 94 1020.4
20260831071105 18 258 0.0 0.0 0.00 0.08 0.00 93 1020.6
20260831070605 18 258 0.0 0.0 0.00 0.08 0.00 94 1020.5
20260831070104 18 258 0.0 0.0 0.00 0.08 0.00 93 1020.4
20260831065604 18 258 0.0 3.2 0.00 0.08 0.00 93 1020.5
20260831064604 18 253 0.0 0.0 0.00 0.08 0.00 93 1020.4
20260831063605 18 253 0.0 0.0 0.00 0.08 0.00 93 1020.2
20260831063105 18 253 0.0 0.0 0.00 0.08 0.00 93 1020.2
20260831062604 18 253 0.0 0.0 0.00 0.08 0.00 93 1020.2
20260831062103 18 253 0.0 0.0 0.00 0.08 0.00 93 1020.2
20260831061605 18 253 0.0 0.0 0.00 0.08 0.00 93 1020.2
20260831060605 19 253 0.0 1.6 0.00 0.08 0.00 92 1020.1
20260831060104 19 255 0.0 0.0 0.00 0.08 0.00 92 1020.2
20260831055604 19 255 0.0 0.0 0.00 0.08 0.00 92 1020.1
20260831054604 19 255 1.6 3.2 0.00 0.08 0.00 93 1020.1
20260831054104 19 255 0.0 1.6 0.00 0.08 0.00 93 1020.2
20260831053604 19 255 0.0 0.0 0.00 0.08 0.00 93 1020.1
20260831053104 19 255 0.0 4.8 0.00 0.08 0.00 93 1020.2
20260831052605 19 255 1.6 3.2 0.00 0.08 0.00 93 1020.1
20260831052104 20 255 0.0 0.0 0.00 0.08 0.00 93 1020.0
20260831051604 20 255 0.0 0.0 0.00 0.08 0.00 93 1019.8
20260831041104 21 255 0.0 0.0 0.00 0.08 0.00 93 1019.9
20260831040604 21 255 0.0 0.0 0.00 0.08 0.00 93 1020.0
20260831040104 21 255 0.0 0.0 0.00 0.08 0.00 93 1020.1
20260831035104 21 255 0.0 0.0 0.00 0.08 0.08 93 1020.0
20260831034604 21 255 0.0 0.0 0.00 0.08 0.08 93 1020.0
20260831034103 21 255 0.0 0.0 0.00 0.08 0.08 93 1019.9
20260831033104 21 255 0.0 0.0 0.00 0.08 0.08 93 1020.0
20260831032604 21 255 1.6 4.8 0.00 0.08 0.08 93 1020.0
20260831032103 21 255 0.0 1.6 0.00 0.08 0.08 93 1020.1
20260831030604 21 255 1.6 3.2 0.00 0.08 0.08 93 1019.9
20260831030104 21 255 1.6 4.8 0.00 0.08 0.08 93 1019.9
20260831025604 21 255 1.6 3.2 0.00 0.08 0.08 93 1020.1
20260831025104 21 255 0.0 1.6 0.00 0.08 0.08 93 1020.1
20260831024604 21 255 0.0 1.6 0.03 0.08 0.08 93 1020.2
20260831024103 21 255 0.0 1.6 0.03 0.08 0.08 93 1020.2
20260831023605 21 255 1.6 4.8 0.03 0.08 0.08 93 1020.3
20260831023104 22 255 1.6 4.8 0.05 0.08 0.08 93 1020.2